Starlink 1494

operational
NORAD ID: 45760 Int'l Des: 2020-038 Owner: SPXS Country: US Constellation: starlink
LEOCIRCULAR

Starlink 1494について

説明を読み込み中...

リアルタイム位置

3D地球を読み込み中...

次回通過

高度履歴

Altitude vs Time

uPlot chart will show altitude changes over time

軌道要素

1 45760U 20038AG 25353.81007788 .00027467 00000-0 39425-3 0 9994
2 45760 53.0505 183.7687 0004739 158.5522 201.5688 15.55933108304886
Epoch: Dec 19, 2025 • Age: 11 hours

現在のステータス

高度 404.3 km
速度 7.67 km/s
衛星直下点 43.11°N, 39.64°E
打ち上げ日 Jun 13, 2020
運用期間 5.5 years
タイプ internet

技術仕様

分類 Payload
質量 260.00 kg
乾燥質量 248.00 kg
総質量 260.00 kg
長さ 0.20 m
直径 2.80 m
スパン 9.00 m
形状 Box + pan
製造者 SPXS
バスタイプ Starlink
フェーズステータス In Orbit
所有者/国 SPXS/US

大規模コンステレーション

Loading constellations...